Погода в Буревестнике

Россия / Нижегородская область     56°08′51″N   43°47′11″E
темп.,
°C
ветер,
м/с
пор.,
м/с
влажн.,
%
обл.,
%
осадки,
мм/ч
давл.,
гПа
погр.,
м
4 июля, пн
пн400:00+15св1279100 0.0 101557
03:00+13ссв248532 0.0 101696
06:00+16всв247875 0.0 1016236
09:00+20св345434 0.0 10161069
12:00+23ссв343951 0.0 10151799
15:00+25с353586 0.0 10152250
18:00+24ссз454217 0.0 1014852
21:00+19св256025 0.0 1015133
5 июля, вт
вт500:00+16ююв246899 0.0 1017106
03:00+14юв117299 0.0 101713
06:00+16вюв226295 0.0 1018144
09:00+20вюв224860 0.0 1018723
12:00+24юв22365 0.0 10181586
15:00+25ююв323510 0.0 10171720
18:00+24ю33445 0.0 1016812
21:00+18ю376416 0.0 1016184
6 июля, ср
ср600:00+16ююз39672 0.0 1017212
03:00+15ююз397065 0.0 1017174
06:00+17ююз4968100 0.0 1017270
09:00+22юз475550 0.0 1016551
12:00+27юз464498 0.0 10161268
15:00+28юз463898 0.0 10151802
18:00+27юз354880 0.0 10141097
21:00+22ююз3670100 0.1 1014209
7 июля, чт
чт700:00+19ююз288997 0.9 1014210
03:00+17ююз399481 1.7 1014216
06:00+19ююз389283 0.6 1014228
09:00+24юз4667100 0.6 1014552
12:00+26зюз575878 0.0 10141096
15:00+29зюз584692 0.0 10132001
18:00+21с4889100 3.6 1015194
21:00+20ююз3694100 10.4 1014155
8 июля, пт
пт800:00+19зюз2697100 1.8 1016197
03:00+19с1297100 2.2 101661
06:00+20ссв129294 0.1 1017161
09:00+23св117648 0.1 1017602
12:00+27юз115820 0.0 10171202
15:00+29юз23525 0.0 10161492
18:00+28ююз23559 0.3 10151191
21:00+23сз237946 0.8 101677